Temperature
20 19 19 18 18 18 18 18 18 18 18 18 18 17 17 17 17 17 17 17 17 17 17 16 16 17 17 17 17 17 16 16 16 17 17 17 17 17 17 17 16 16 16
19 19 19 18 18 18 18 18 18 18 18 18 17 17 17 17 17 17 17 16 16 16 16 16 16 16 16 16 16 16 16 16 16 16 16 16 16 16 16 16 16 16 16
19 19 19 18 18 18 18 18 18 18 17 17 17 17 17 17 17 17 16 16 16 16 16 16 16 16 16 16 16 16 16 15 15 15 16 16 16 16 16 16 15 15 15
19 18 18 18 18 18 18 17 17 17 17 17 16 16 16 16 16 16 16 16 16 16 16 15 15 15 15 15 15 15 15 15 15 15 15 15 15 15 15 15 15 15 15
19 18 18 18 18 18 17 17 17 17 16 16 16 16 16 16 16 16 16 16 16 16 15 15 15 15 15 15 15 15 15 15 15 14 14 15 15 15 15 15 14 14 15
19 18 18 18 17 17 17 17 16 17 16 16 16 16 16 16 16 16 16 15 15 15 15 15 15 15 15 15 15 15 15 14 14 14 14 14 14 14 14 14 14 14 14
18 18 17 17 17 17 17 16 16 16 16 16 16 16 16 16 16 16 16 15 15 15 15 15 14 14 15 15 15 15 15 14 14 14 14 14 14 14 14 14 14 13 13
18 18 17 17 17 16 16 16 16 16 16 16 16 16 16 16 16 16 15 15 15 15 15 15 15 14 14 14 14 14 14 14 14 14 14 14 14 14 14 13 13 13 13
17 17 17 16 16 16 16 16 16 16 16 16 16 16 16 15 15 15 15 15 15 15 15 15 14 14 14 14 14 14 14 14 14 14 14 14 14 14 13 13 13 13 12
17 17 16 16 16 15 15 15 15 15 15 15 15 15 15 15 15 15 15 15 14 14 14 14 14 14 14 14 14 14 14 14 14 14 14 14 14 13 13 13 13 12 12
16 16 16 16 15 15 15 15 15 15 15 15 15 15 15 15 15 15 15 14 14 14 14 14 14 14 14 14 14 14 14 14 13 13 13 13 13 13 13 13 13 12 12
16 16 16 15 15 15 15 15 15 15 15 15 15 15 15 15 15 15 14 14 14 14 14 14 14 14 14 14 14 14 14 13 13 13 13 13 13 13 12 12 12 12 12
15 15 15 15 15 15 15 15 15 15 15 15 15 15 14 14 14 14 14 14 14 14 14 14 14 14 14 14 14 13 13 13 13 13 12 12 12 12 12 12 12 12 12
15 14 14 15 14 15 15 15 15 15 15 15 15 14 14 14 14 14 14 14 13 13 13 13 13 13 13 13 13 13 13 13 12 12 12 12 12 12 12 11 11 11 11
14 14 14 14 14 14 14 14 14 14 15 15 14 14 14 14 14 14 13 13 13 13 13 13 13 13 13 13 13 13 12 12 12 12 12 11 11 11 11 11 11 11 11
13 13 13 14 14 14 14 14 14 14 14 14 14 14 14 14 14 13 13 13 13 13 13 13 13 12 12 12 12 12 12 12 12 11 11 11 11 11 11 11 11 11 11
13 13 13 13 14 14 14 14 14 14 14 14 14 14 14 13 13 13 13 13 13 12 12 12 12 12 12 12 12 11 11 11 11 11 11 11 11 11 11 11 11 10 10
13 13 13 13 13 14 14 14 14 14 14 14 13 13 13 13 13 13 13 12 12 12 12 12 12 11 11 11 11 11 11 11 11 11 11 11 10 10 10 10 10 10 10
13 13 13 13 13 13 13 14 14 14 13 13 13 13 13 13 12 12 12 12 12 12 12 11 11 11 11 11 11 11 11 11 11 11 10 10 10 10 10 10 10 10 10
13 13 13 13 13 13 13 13 13 13 13 13 13 13 13 12 12 12 12 12 11 11 11 11 11 11 11 11 10 10 10 10 10 10 10 10 10 10 10 10 10 10 10
12 13 13 13 13 13 13 13 13 13 13 13 13 12 12 12 12 12 11 11 11 11 11 11 10 10 10 10 10 10 10 10 10 9 9 9 9 9 9 9 9 9 9
12 13 13 13 13 12 13 13 13 13 12 12 12 12 12 12 11 11 11 11 10 10 10 10 10 10 10 10 10 10 10 9 9 9 9 9 9 9 9 9 9 9 9
12 12 12 12 12 12 12 12 12 12 12 12 12 12 11 11 11 11 11 10 10 10 10 10 10 10 10 9 9 9 9 9 9 9 9 9 9 8 9 9 9 9 9
12 12 12 12 12 12 12 12 12 12 12 12 11 11 11 11 10 10 10 10 10 10 10 10 9 9 9 9 9 9 9 9 9 9 9 9 8 8 8 8 8 8 8
12 12 12 12 12 12 12 12 12 11 11 11 11 11 11 10 10 10 10 10 10 10 9 9 9 9 9 9 9 9 9 9 9 9 8 8 8 8 8 8 8 8 8
11 11 11 11 11 11 11 11 11 11 11 11 10 10 10 10 10 10 10 10 9 9 9 9 9 9 9 9 9 9 9 9 8 8 8 8 8 8 8 8 8 8 8
Wind_Speed
5 4 3 4 4 3 3 3 2 2 2 2 2 2 2 2 2 2 3 2 2 3 3 2 3 3 3 4 3 3 3 3 4 4 2 2 1 1 1 3 4 6 7
5 4 4 4 4 4 4 3 3 2 2 2 2 2 3 2 2 2 3 3 3 3 3 3 3 3 3 3 4 4 4 3 3 5 4 3 3 3 3 3 4 5 4
6 6 5 4 4 4 3 2 2 3 3 2 2 2 3 2 2 2 3 3 4 4 4 4 3 3 4 3 4 4 4 4 3 4 4 3 3 3 2 4 4 3 4
6 5 4 4 3 3 3 3 3 3 3 3 3 3 3 2 3 3 3 4 4 4 4 4 3 3 3 4 5 4 4 5 5 4 4 4 3 3 2 3 3 3 3
4 4 4 3 2 2 2 3 3 3 4 3 3 3 3 3 3 3 4 5 4 4 4 4 4 4 4 4 4 3 4 4 4 4 4 4 3 3 3 3 4 3 3
3 3 3 3 3 3 3 3 3 3 3 2 3 3 3 3 2 2 3 4 4 4 4 4 4 5 4 4 5 5 5 5 4 4 4 4 4 4 3 4 4 4 4
2 2 3 3 3 3 3 2 3 3 3 3 3 2 3 2 2 2 4 4 5 4 4 4 5 4 2 3 4 7 7 8 7 5 6 6 5 4 4 5 4 4 5
2 2 2 3 3 3 3 2 2 3 3 3 3 3 3 3 3 3 5 5 5 5 4 4 4 3 4 4 5 5 5 6 7 6 6 6 5 4 4 5 6 6 5
3 2 2 3 3 2 2 2 3 3 3 3 3 3 3 3 4 4 4 5 4 5 4 3 3 3 3 4 4 6 6 6 7 8 7 7 6 7 5 4 4 4 5
2 2 2 2 3 3 3 3 3 3 4 5 4 4 4 4 5 5 4 4 5 4 4 3 3 3 4 4 5 5 6 6 6 6 5 6 6 6 6 5 4 4 4
1 1 2 2 3 4 3 3 4 5 5 5 5 5 5 5 5 6 5 3 4 5 4 3 2 4 5 6 6 6 7 6 6 6 5 4 3 3 2 2 3 4 4
0 1 2 3 5 4 3 4 5 6 6 6 6 5 4 4 4 6 7 6 5 5 5 4 3 4 6 8 7 7 8 6 4 4 4 3 3 2 2 3 2 3 3
1 2 3 4 4 3 5 5 5 5 6 5 5 5 3 2 3 5 7 8 7 5 4 5 5 6 6 6 8 8 6 4 4 4 3 3 3 3 2 2 2 2 3
2 2 3 4 4 4 4 5 5 5 5 4 3 4 3 2 1 1 2 3 4 4 4 5 7 9 7 6 5 5 4 3 3 3 3 3 2 2 2 2 2 2 3
2 3 4 4 4 3 4 4 4 3 3 3 3 3 3 2 2 2 1 2 3 3 3 4 4 3 3 3 3 2 2 2 3 3 3 3 3 2 2 2 2 3 3
3 4 4 4 4 3 3 3 3 3 3 3 3 2 1 1 2 3 3 3 4 3 2 3 4 3 3 3 2 2 2 2 3 3 3 2 3 3 2 2 2 3 3
4 4 5 5 5 4 3 3 3 3 3 4 4 3 4 3 4 5 5 4 4 2 3 4 3 3 3 3 2 3 2 2 2 3 3 2 2 2 2 2 2 2 3
5 5 5 5 5 4 4 4 4 4 3 2 3 5 5 5 5 5 4 1 2 3 3 3 3 3 3 2 2 3 3 2 2 2 2 2 2 2 3 3 2 2 3
5 4 4 5 5 5 4 4 4 4 3 2 1 2 4 4 4 5 3 3 3 3 2 2 2 2 2 2 2 2 3 3 2 2 2 1 2 2 3 3 2 3 3
4 5 5 5 5 4 4 4 4 3 3 2 1 1 1 1 2 2 2 2 2 2 2 1 1 2 2 1 2 2 2 2 2 2 2 2 2 2 2 2 2 2 2
5 4 6 5 4 4 4 3 4 3 2 2 2 1 2 2 2 2 2 2 1 2 1 1 1 1 1 1 1 2 2 2 2 2 2 2 2 2 2 3 3 2 2
5 5 4 4 3 3 4 4 3 3 3 2 2 0 2 1 1 1 1 1 2 2 2 1 1 1 1 1 1 2 2 2 2 2 2 2 2 2 3 3 3 3 3
5 5 4 3 3 2 3 3 3 3 2 2 1 0 1 1 1 1 1 2 1 1 1 1 1 1 2 2 2 2 2 2 2 2 2 2 2 2 3 3 4 3 3
4 4 3 3 2 3 3 3 3 2 2 2 1 0 0 1 1 1 1 0 0 0 1 1 1 2 2 2 2 3 3 3 4 3 3 3 3 3 3 3 3 4 3
4 3 3 3 3 3 3 2 2 2 2 2 1 1 1 0 1 1 1 0 0 0 1 1 1 1 2 3 3 4 5 6 5 4 3 3 3 3 3 3 2 3 3
4 3 3 2 2 2 2 2 2 2 1 1 1 0 1 1 1 1 1 0 0 0 1 1 2 2 3 3 5 5 4 5 5 6 4 3 2 2 3 2 3 2 2
Wind_Direction
182 174 192 193 199 213 223 238 253 263 263 266 274 274 268 271 279 270 267 268 270 273 279 277 274 271 280 293 296 283 277 273 276 291 296 305 291 277 259 244 235 223 219
178 177 196 201 198 209 219 219 225 247 257 261 261 272 272 275 276 277 281 286 277 274 272 269 274 282 288 289 295 289 285 279 275 286 288 285 275 245 232 245 259 252 224
182 187 195 200 204 209 221 227 220 231 246 259 264 270 279 284 279 277 277 276 273 271 272 269 265 275 286 287 284 289 292 291 275 274 277 274 271 264 257 260 261 258 255
183 186 193 199 204 213 212 224 228 229 230 235 247 260 268 273 283 289 285 274 275 275 271 272 264 265 281 288 281 285 289 289 282 280 280 276 272 276 280 270 269 260 262
181 189 193 191 190 206 209 214 228 243 240 231 237 250 258 256 278 297 292 277 279 278 277 273 260 246 252 261 276 287 287 283 285 282 286 293 293 293 280 274 278 278 266
179 193 185 188 198 212 211 215 222 237 249 245 247 254 263 273 289 298 296 291 290 284 282 283 268 245 248 255 261 268 271 273 282 279 283 285 289 294 290 287 288 287 283
171 180 191 195 202 217 227 216 222 234 240 234 236 240 244 272 293 301 296 281 281 281 279 274 279 284 274 275 268 266 263 263 260 263 273 277 277 279 277 277 277 275 276
171 180 198 207 212 215 219 236 243 245 249 239 232 234 236 247 246 267 289 266 270 273 270 262 262 279 289 297 282 274 266 265 260 255 257 267 277 270 259 262 268 267 271
188 195 210 219 220 228 236 243 248 246 253 250 236 237 239 238 230 244 270 271 265 266 262 258 254 264 301 305 284 280 276 276 272 270 263 260 264 263 254 261 265 267 274
203 213 216 221 218 237 248 253 255 251 250 252 244 243 239 234 219 229 246 264 269 272 262 244 234 243 266 270 268 274 275 282 291 288 277 267 257 253 246 230 240 258 269
212 242 223 232 231 229 235 248 257 254 253 254 253 244 234 231 209 209 220 250 275 281 274 266 250 240 257 260 261 266 267 277 281 274 270 264 257 253 249 246 245 251 261
282 268 258 244 245 233 227 238 247 250 248 246 249 251 236 220 213 211 214 232 265 279 285 282 278 272 268 264 259 261 270 278 273 273 273 271 272 270 269 267 265 258 251
285 277 279 276 261 235 232 239 246 249 251 249 242 246 246 214 200 211 221 240 252 260 280 293 290 277 267 259 248 252 260 266 271 270 275 282 276 267 263 263 268 267 266
284 290 278 271 267 251 247 243 246 255 257 267 270 271 271 257 213 232 255 262 258 262 278 287 272 262 255 258 259 250 246 257 264 271 275 273 269 268 275 278 272 269 271
269 273 271 266 269 257 254 261 258 254 256 265 277 281 279 277 253 222 241 262 271 276 279 273 272 267 258 252 252 246 245 252 267 273 279 286 284 278 277 290 282 281 274
272 272 273 271 263 251 252 266 283 249 236 232 230 241 264 228 224 223 237 262 273 274 264 269 277 281 288 291 286 274 264 271 270 267 270 269 275 276 278 288 288 288 290
277 277 282 284 276 265 258 261 269 276 256 234 231 232 235 243 241 247 253 275 279 235 244 257 267 279 289 296 299 295 285 274 269 267 267 271 280 287 287 289 298 307 304
270 267 276 283 278 274 273 273 270 268 272 269 252 240 233 235 240 245 245 272 279 242 248 260 272 276 279 290 303 306 306 307 298 292 288 290 299 296 293 287 279 279 286
271 275 277 283 279 274 272 278 281 283 284 286 304 249 228 236 240 246 222 235 257 270 280 289 304 309 308 312 317 316 312 305 307 305 311 316 310 293 292 295 291 292 287
257 261 265 267 266 274 281 285 286 286 280 276 263 282 193 193 233 237 222 236 253 269 291 307 313 323 325 330 330 321 321 333 344 342 336 322 313 302 297 300 304 310 304
279 266 253 260 261 272 276 279 281 282 280 284 277 172 160 222 240 232 217 228 258 281 299 310 307 310 327 328 323 316 324 339 342 335 335 333 333 332 324 311 302 298 292
274 270 262 261 265 273 277 275 275 282 290 294 292 131 161 207 280 277 279 247 250 264 286 305 305 332 353 347 337 326 330 338 342 343 333 327 331 327 328 318 315 313 300
274 272 266 262 262 255 258 271 277 280 282 280 282 91 171 256 280 265 274 282 271 258 272 284 294 343 13 16 4 352 351 342 327 320 313 309 312 313 312 310 306 306 305
281 277 281 280 278 276 279 284 288 300 304 295 283 307 209 218 269 282 269 282 312 333 323 328 25 43 35 32 17 23 23 2 344 334 315 295 289 292 296 296 296 298 304
285 280 282 290 291 285 284 292 303 316 322 319 316 317 308 305 291 299 311 6 51 21 19 31 33 45 55 46 44 33 22 14 0 341 316 295 287 289 297 303 313 323 324
303 299 298 299 294 294 296 296 296 302 297 278 269 294 322 334 335 325 336 337 326 332 358 36 40 44 65 60 49 42 29 11 0 349 326 299 305 324 330 322 319 318 313
Height
1511 1512 1514 1514 1515 1516 1516 1517 1517 1518 1518 1518 1518 1518 1517 1517 1516 1516 1515 1515 1515 1514 1514 1514 1513 1513 1513 1514 1514 1514 1514 1513 1512 1511 1511 1511 1510 1509 1509 1508 1508 1507 1507
1509 1510 1511 1512 1513 1514 1514 1514 1515 1515 1515 1515 1515 1515 1515 1514 1514 1514 1513 1513 1513 1512 1511 1511 1510 1511 1510 1510 1510 1510 1510 1510 1509 1508 1507 1507 1507 1506 1506 1505 1504 1504 1503
1507 1508 1509 1510 1511 1511 1512 1512 1512 1512 1512 1512 1512 1512 1512 1512 1512 1511 1511 1510 1510 1510 1509 1508 1508 1508 1507 1507 1507 1507 1507 1506 1506 1505 1504 1504 1503 1503 1502 1501 1500 1500 1499
1505 1506 1507 1508 1508 1509 1509 1510 1510 1510 1509 1509 1509 1509 1509 1509 1509 1508 1508 1508 1507 1507 1506 1506 1505 1505 1505 1504 1504 1503 1503 1503 1502 1502 1501 1500 1500 1499 1498 1497 1496 1496 1496
1503 1504 1505 1505 1506 1506 1506 1507 1507 1507 1507 1507 1507 1507 1507 1507 1506 1505 1505 1505 1504 1504 1503 1503 1503 1502 1502 1501 1501 1500 1500 1499 1499 1498 1497 1496 1496 1495 1495 1494 1493 1492 1492
1501 1502 1503 1503 1503 1504 1504 1504 1504 1504 1504 1504 1504 1504 1504 1503 1503 1502 1502 1501 1501 1501 1500 1499 1499 1499 1498 1498 1498 1497 1497 1496 1495 1494 1493 1492 1491 1491 1491 1490 1490 1489 1488
1499 1499 1500 1501 1501 1501 1501 1502 1501 1501 1501 1501 1501 1500 1500 1500 1499 1499 1498 1498 1497 1497 1497 1496 1496 1496 1495 1494 1494 1493 1492 1492 1491 1491 1489 1488 1488 1487 1487 1486 1485 1485 1484
1497 1497 1498 1498 1498 1498 1499 1499 1498 1498 1499 1498 1498 1497 1497 1496 1496 1495 1495 1494 1494 1493 1493 1492 1492 1492 1491 1491 1490 1489 1488 1487 1487 1486 1486 1485 1484 1483 1482 1482 1481 1481 1480
1494 1495 1495 1496 1496 1496 1495 1496 1496 1496 1496 1496 1495 1494 1494 1493 1493 1492 1492 1491 1490 1490 1489 1489 1488 1487 1487 1487 1486 1485 1484 1483 1483 1483 1482 1481 1480 1479 1478 1477 1477 1476 1475
1492 1492 1492 1493 1493 1493 1492 1493 1493 1493 1493 1493 1492 1491 1491 1490 1490 1489 1489 1488 1487 1486 1485 1485 1484 1483 1483 1482 1482 1481 1479 1479 1478 1477 1477 1476 1475 1474 1473 1473 1472 1471 1471
1489 1489 1489 1489 1490 1490 1490 1490 1490 1490 1490 1489 1489 1488 1488 1487 1487 1486 1485 1484 1483 1483 1482 1481 1480 1480 1479 1478 1477 1476 1476 1475 1474 1473 1473 1472 1471 1470 1469 1469 1468 1467 1467
1486 1486 1486 1486 1486 1486 1486 1486 1487 1486 1486 1485 1485 1485 1484 1484 1483 1483 1482 1481 1480 1479 1478 1478 1477 1476 1475 1474 1473 1472 1472 1471 1470 1469 1469 1468 1467 1466 1465 1464 1464 1463 1462
1483 1483 1483 1483 1482 1483 1483 1483 1483 1483 1483 1482 1482 1481 1481 1480 1480 1479 1478 1477 1476 1476 1475 1474 1474 1473 1472 1471 1470 1469 1468 1467 1466 1466 1465 1464 1463 1462 1462 1461 1460 1459 1459
1480 1480 1480 1479 1479 1479 1480 1480 1480 1479 1479 1479 1478 1478 1477 1477 1476 1475 1474 1473 1473 1472 1471 1470 1470 1469 1468 1467 1466 1465 1465 1464 1463 1462 1461 1460 1460 1459 1458 1457 1456 1455 1455
1478 1477 1476 1476 1476 1476 1476 1476 1476 1476 1475 1475 1474 1474 1474 1473 1472 1472 1471 1470 1469 1468 1467 1466 1465 1465 1465 1464 1463 1462 1461 1460 1460 1459 1458 1457 1456 1456 1455 1454 1453 1453 1452
1475 1475 1474 1474 1473 1473 1472 1472 1472 1472 1472 1472 1471 1471 1470 1470 1469 1468 1467 1466 1465 1465 1464 1463 1462 1462 1462 1461 1460 1459 1458 1457 1457 1456 1455 1454 1453 1453 1452 1451 1451 1450 1450
1472 1472 1472 1472 1471 1470 1469 1469 1469 1469 1468 1468 1467 1467 1466 1466 1465 1464 1464 1463 1462 1461 1460 1460 1460 1460 1459 1458 1458 1457 1456 1455 1454 1453 1452 1452 1451 1450 1450 1449 1448 1447 1447
1469 1470 1469 1469 1468 1468 1467 1466 1466 1465 1465 1463 1463 1463 1462 1462 1461 1461 1460 1460 1459 1458 1458 1457 1457 1457 1456 1456 1455 1454 1453 1452 1451 1451 1450 1449 1448 1447 1447 1446 1446 1445 1445
1466 1466 1466 1466 1465 1465 1464 1464 1463 1463 1462 1461 1460 1460 1459 1459 1459 1458 1457 1456 1456 1456 1455 1455 1454 1454 1454 1453 1452 1451 1450 1449 1449 1448 1447 1446 1445 1445 1445 1444 1444 1443 1442
1463 1463 1463 1462 1462 1462 1461 1461 1460 1459 1459 1458 1457 1457 1456 1456 1455 1455 1455 1454 1454 1454 1453 1452 1452 1452 1451 1450 1449 1448 1448 1447 1446 1445 1444 1444 1443 1443 1442 1442 1441 1441 1440
1460 1460 1460 1459 1459 1459 1458 1458 1458 1457 1457 1456 1455 1454 1454 1453 1453 1452 1452 1452 1452 1451 1451 1450 1450 1449 1449 1448 1447 1446 1445 1445 1444 1443 1442 1441 1440 1440 1440 1439 1439 1438 1438
1457 1457 1457 1456 1456 1455 1455 1455 1455 1454 1454 1453 1453 1452 1451 1451 1451 1450 1450 1450 1450 1450 1449 1449 1448 1447 1446 1446 1445 1444 1443 1442 1442 1441 1440 1439 1438 1438 1437 1437 1436 1436 1436
1454 1454 1454 1453 1453 1452 1452 1452 1452 1452 1451 1451 1450 1449 1449 1448 1448 1448 1448 1448 1448 1448 1447 1446 1446 1445 1445 1444 1443 1442 1441 1440 1439 1439 1438 1437 1436 1436 1435 1435 1434 1434 1433
1451 1451 1451 1450 1450 1450 1450 1449 1449 1448 1448 1448 1447 1447 1447 1446 1446 1446 1446 1446 1446 1445 1445 1444 1444 1443 1442 1441 1441 1440 1440 1439 1438 1437 1436 1435 1435 1434 1433 1432 1432 1431 1431
1448 1448 1448 1448 1448 1447 1447 1447 1446 1446 1446 1445 1445 1445 1445 1445 1445 1445 1444 1444 1443 1443 1443 1442 1442 1441 1440 1439 1439 1438 1437 1437 1436 1435 1434 1433 1432 1432 1431 1430 1430 1429 1428
1446 1446 1445 1445 1445 1445 1444 1444 1444 1444 1444 1443 1443 1443 1443 1443 1443 1443 1442 1442 1441 1441 1441 1440 1440 1439 1438 1438 1437 1436 1435 1434 1433 1432 1431 1431 1430 1429 1428 1428 1427 1427 1426